Flight Track Log - Related Links

Times and Time Zones

All times are in EDT time to prevent confusion due to time zone crossing. See the N695GH flight status page for this flight to view local times or setup timezone preferences in your user account.

Time Position Orientation Groundspeed Altitude Reporting Facility
EDT Latitude Longitude Course Direction KTS MPH feet Rate Location/Type
05:26PM 36.1742 -115.2317 119° Southeast 182 209 4,400  Level Los Angeles Center
05:27PM 36.1658 -115.3036 262° West 193 222 6,600 1,734 Climbing Los Angeles Center
05:29PM 36.1489 -115.3653 251° West 202 232 8,100 703 Climbing Los Angeles Center
05:30PM 36.0869 -115.3986 204° Southwest 251 289 8,100 -98 Level Los Angeles Center
05:31PM 36.0189 -115.4236 197° South 257 296 7,900 49 Descending Los Angeles Center
05:32PM -19.8752 -160.2346 119° Southeast  Level Estimated
05:32PM 35.9475 -115.4522 198° South 253 291 8,200  Level Los Angeles Center
05:33PM 35.8928 -115.4886 208° Southwest 225 259 9,400 1,149 Climbing Los Angeles Center
05:34PM 35.8347 -115.5406 216° Southwest 215 247 10,900 972 Climbing Los Angeles Center
05:35PM 35.7883 -115.5872 219° Southwest 200 230 11,700 726 Climbing Los Angeles Center
05:36PM 35.7433 -115.6294 217° Southwest 203 234 12,400 726 Climbing Los Angeles Center
05:37PM 35.6986 -115.6714 217° Southwest 214 246 13,200 871 Climbing Los Angeles Center
05:38PM 35.6472 -115.7194 217° Southwest 222 255 14,200 1,059 Climbing Los Angeles Center
05:39PM 35.5867 -115.7756 217° Southwest 226 260 15,600 964 Climbing Los Angeles Center
05:40PM 35.5250 -115.8308 216° Southwest 227 261 16,400 384 Climbing Los Angeles Center
05:41PM 35.4669 -115.8783 214° Southwest 237 273 16,400 48 Level Los Angeles Center
05:42PM 35.4072 -115.9317 216° Southwest 254 292 16,500 48 Climbing Los Angeles Center
05:44PM 35.3425 -115.9853 214° Southwest 267 307 16,500  Level Los Angeles Center
05:45PM 35.2800 -116.0397 215° Southwest 273 314 16,500  Level Los Angeles Center
05:46PM 35.2175 -116.0961 216° Southwest 276 318 16,500  Level Los Angeles Center
05:47PM 35.1419 -116.1625 216° Southwest 278 320 16,500  Level Los Angeles Center
05:48PM 35.0781 -116.2183 216° Southwest 279 321 16,500  Level Los Angeles Center
05:49PM 35.0144 -116.2717 214° Southwest 279 321 16,500  Level Los Angeles Center
05:50PM 34.9494 -116.3281 215° Southwest 281 323 16,500  Level Los Angeles Center
05:51PM 34.8858 -116.3831 215° Southwest 281 323 16,500  Level Los Angeles Center
05:52PM 34.8106 -116.4519 217° Southwest 282 325 16,500  Level Los Angeles Center
05:53PM 34.7481 -116.5072 216° Southwest 279 321 16,500  Level Los Angeles Center
05:54PM 34.6831 -116.5636 216° Southwest 283 326 16,500  Level Los Angeles Center
05:55PM 34.6200 -116.6219 217° Southwest 285 328 16,500  Level Los Angeles Center
05:56PM 34.5442 -116.6917 217° Southwest 283 326 16,500  Level Los Angeles Center
05:57PM 34.4692 -116.7603 217° Southwest 282 325 16,500  Level Los Angeles Center
05:58PM 34.4056 -116.8164 216° Southwest 282 325 16,500 -48 Level Los Angeles Center
05:59PM 34.3408 -116.8753 217° Southwest 287 330 16,400 -144 Descending Los Angeles Center
06:00PM 34.2761 -116.9314 216° Southwest 287 330 16,200 -528 Descending Los Angeles Center
06:01PM 34.2122 -116.9864 215° Southwest 282 325 15,300 -1,210 Descending Los Angeles Center
06:02PM 34.1539 -117.0444 219° Southwest 272 313 13,700 -1,597 Descending Los Angeles Center
06:03PM 34.0967 -117.1228 229° Southwest 269 310 12,000 -1,548 Descending Los Angeles Center
06:04PM 34.0561 -117.2003 238° Southwest 269 310 10,500 -1,694 Descending Los Angeles Center
06:05PM 34.0217 -117.2792 242° Southwest 267 307 8,500 -1,984 Descending Los Angeles Center
06:07PM 33.9944 -117.3589 248° West 260 299 6,400 -2,268 Descending Los Angeles Center
06:08PM 33.9833 -117.4500 262° West 242 278 3,700 -1,584 Descending Southern California TRACON
06:09PM 33.9833 -117.5167 270° West 185 213 3,100 -900 Descending Southern California TRACON
06:10PM 33.9833 -117.5667 270° West 148 170 1,900 -1,041 Descending Southern California TRACON
06:11PM 33.9833 -117.6167 270° West 122 140 1,000 -885 Descending Southern California TRACON
06:13PM 33.9667 -117.6333 256° West  Level FlightAware Approximate
06:20PM 33.9748 -117.6365 256° West  Level Estimated

Login

Don't have an account? Register now (free) for customized features, flight alerts, and more!